Tabellarische Ansicht des 16.3.2023


Die einzelnen Werte des Tages

Uhrzeit Temperatur Luftdruck Luftfeuchte Wind Hi-Wind Taupunkt THW Index Wind Chill Heat Index Solar- strahlung Regen

00:00

-2.2 C

1017.0 hpa

83 %

0.0 km/h aus 117

0.0 km/h aus ---

-4.7 C

-2.3 C

-2.2 C

-2.3 C

0 W/m

0.00 mm

00:05

-2.2 C

1017.0 hpa

83 %

3.2 km/h aus 114

6.4 km/h aus WSW

-4.7 C

-3.1 C

-3.0 C

-2.3 C

0 W/m

0.00 mm

00:10

-2.2 C

1017.0 hpa

83 %

1.6 km/h aus 114

6.4 km/h aus WSW

-4.7 C

-2.3 C

-2.2 C

-2.3 C

0 W/m

0.00 mm

00:15

-2.2 C

1017.0 hpa

84 %

0.0 km/h aus 114

4.8 km/h aus WSW

-4.6 C

-2.3 C

-2.2 C

-2.3 C

0 W/m

0.00 mm

00:20

-2.2 C

1017.0 hpa

84 %

0.0 km/h aus 115

4.8 km/h aus WSW

-4.6 C

-2.3 C

-2.2 C

-2.3 C

0 W/m

0.00 mm

00:25

-2.2 C

1017.0 hpa

84 %

0.0 km/h aus 117

0.0 km/h aus ---

-4.6 C

-2.3 C

-2.2 C

-2.3 C

0 W/m

0.00 mm

00:30

-2.2 C

1017.1 hpa

84 %

0.0 km/h aus 116

0.0 km/h aus ---

-4.6 C

-2.3 C

-2.2 C

-2.3 C

0 W/m

0.00 mm

00:35

-2.2 C

1017.1 hpa

84 %

0.0 km/h aus 117

3.2 km/h aus WSW

-4.6 C

-2.3 C

-2.2 C

-2.3 C

0 W/m

0.00 mm

00:40

-2.3 C

1017.1 hpa

85 %

0.0 km/h aus 117

1.6 km/h aus WSW

-4.5 C

-2.4 C

-2.3 C

-2.4 C

0 W/m

0.00 mm

00:45

-2.3 C

1017.2 hpa

85 %

0.0 km/h aus 117

4.8 km/h aus WSW

-4.5 C

-2.4 C

-2.3 C

-2.4 C

0 W/m

0.00 mm

00:50

-2.3 C

1017.2 hpa

85 %

1.6 km/h aus 118

4.8 km/h aus WSW

-4.5 C

-2.4 C

-2.3 C

-2.4 C

0 W/m

0.00 mm

00:55

-2.3 C

1017.2 hpa

85 %

0.0 km/h aus 116

4.8 km/h aus WSW

-4.5 C

-2.4 C

-2.3 C

-2.4 C

0 W/m

0.00 mm

01:00

-2.3 C

1017.2 hpa

85 %

0.0 km/h aus 114

3.2 km/h aus WSW

-4.5 C

-2.4 C

-2.3 C

-2.4 C

0 W/m

0.00 mm

01:05

-2.3 C

1017.2 hpa

85 %

0.0 km/h aus 113

0.0 km/h aus ---

-4.5 C

-2.4 C

-2.3 C

-2.4 C

0 W/m

0.00 mm

01:10

-2.4 C

1017.2 hpa

85 %

0.0 km/h aus 115

0.0 km/h aus ---

-4.6 C

-2.5 C

-2.4 C

-2.5 C

0 W/m

0.00 mm

01:15

-2.4 C

1017.2 hpa

85 %

1.6 km/h aus 117

8.0 km/h aus SSW

-4.6 C

-2.6 C

-2.4 C

-2.6 C

0 W/m

0.00 mm

01:20

-2.4 C

1017.2 hpa

85 %

3.2 km/h aus 117

6.4 km/h aus SSW

-4.6 C

-3.4 C

-3.3 C

-2.6 C

0 W/m

0.00 mm

01:25

-2.4 C

1017.2 hpa

86 %

1.6 km/h aus 117

6.4 km/h aus SSW

-4.5 C

-2.6 C

-2.4 C

-2.6 C

0 W/m

0.00 mm

01:30

-2.4 C

1017.3 hpa

86 %

3.2 km/h aus 117

6.4 km/h aus SSW

-4.4 C

-3.3 C

-3.2 C

-2.5 C

0 W/m

0.00 mm

01:35

-2.2 C

1017.3 hpa

86 %

4.8 km/h aus 117

9.7 km/h aus S

-4.2 C

-4.1 C

-3.9 C

-2.3 C

0 W/m

0.00 mm

01:40

-2.1 C

1017.3 hpa

86 %

3.2 km/h aus 116

8.0 km/h aus S

-4.1 C

-2.9 C

-2.8 C

-2.2 C

0 W/m

0.00 mm

01:45

-2.0 C

1017.3 hpa

87 %

4.8 km/h aus 116

8.0 km/h aus S

-3.9 C

-3.9 C

-3.8 C

-2.1 C

0 W/m

0.00 mm

01:50

-1.8 C

1017.3 hpa

87 %

3.2 km/h aus 115

6.4 km/h aus S

-3.7 C

-2.6 C

-2.5 C

-1.9 C

0 W/m

0.00 mm

01:55

-1.6 C

1017.3 hpa

87 %

3.2 km/h aus 115

8.0 km/h aus S

-3.5 C

-2.4 C

-2.3 C

-1.7 C

0 W/m

0.00 mm

02:00

-1.5 C

1017.2 hpa

87 %

1.6 km/h aus 115

4.8 km/h aus S

-3.4 C

-1.6 C

-1.5 C

-1.6 C

0 W/m

0.00 mm

02:05

-1.4 C

1017.2 hpa

87 %

1.6 km/h aus 116

4.8 km/h aus S

-3.3 C

-1.6 C

-1.4 C

-1.6 C

0 W/m

0.00 mm

02:10

-1.4 C

1017.2 hpa

87 %

1.6 km/h aus 117

6.4 km/h aus S

-3.3 C

-1.5 C

-1.4 C

-1.5 C

0 W/m

0.00 mm

02:15

-1.4 C

1017.2 hpa

87 %

4.8 km/h aus 116

8.0 km/h aus S

-3.3 C

-3.2 C

-3.1 C

-1.5 C

0 W/m

0.00 mm

02:20

-1.3 C

1017.2 hpa

87 %

4.8 km/h aus 116

9.7 km/h aus S

-3.2 C

-3.1 C

-2.9 C

-1.4 C

0 W/m

0.00 mm

02:25

-1.2 C

1017.2 hpa

87 %

3.2 km/h aus 117

6.4 km/h aus S

-3.1 C

-2.0 C

-1.9 C

-1.3 C

0 W/m

0.00 mm

02:30

-1.1 C

1016.9 hpa

87 %

3.2 km/h aus 116

8.0 km/h aus S

-3.0 C

-1.9 C

-1.8 C

-1.2 C

0 W/m

0.00 mm

02:35

-1.1 C

1016.9 hpa

87 %

1.6 km/h aus 114

6.4 km/h aus S

-3.0 C

-1.2 C

-1.1 C

-1.2 C

0 W/m

0.00 mm

02:40

-1.1 C

1016.9 hpa

87 %

0.0 km/h aus 114

4.8 km/h aus S

-2.9 C

-1.2 C

-1.1 C

-1.2 C

0 W/m

0.00 mm

02:45

-1.1 C

1017.0 hpa

87 %

0.0 km/h aus 113

4.8 km/h aus S

-2.9 C

-1.2 C

-1.1 C

-1.2 C

0 W/m

0.00 mm

02:50

-1.1 C

1017.0 hpa

87 %

0.0 km/h aus 117

3.2 km/h aus S

-2.9 C

-1.2 C

-1.1 C

-1.2 C

0 W/m

0.00 mm

02:55

-1.1 C

1017.0 hpa

86 %

1.6 km/h aus 115

4.8 km/h aus S

-3.2 C

-1.2 C

-1.1 C

-1.2 C

0 W/m

0.00 mm

03:00

-1.2 C

1016.7 hpa

86 %

3.2 km/h aus 118

8.0 km/h aus S

-3.2 C

-1.9 C

-1.8 C

-1.3 C

0 W/m

0.00 mm

03:05

-1.2 C

1016.7 hpa

86 %

3.2 km/h aus 117

9.7 km/h aus S

-3.3 C

-2.0 C

-1.9 C

-1.3 C

0 W/m

0.00 mm

03:10

-1.2 C

1016.7 hpa

86 %

4.8 km/h aus 117

9.7 km/h aus S

-3.2 C

-2.9 C

-2.8 C

-1.3 C

0 W/m

0.00 mm

03:15

-1.1 C

1016.7 hpa

86 %

4.8 km/h aus 116

9.7 km/h aus S

-3.2 C

-2.8 C

-2.7 C

-1.2 C

0 W/m

0.00 mm

03:20

-1.1 C

1016.7 hpa

86 %

6.4 km/h aus 113

11.3 km/h aus SSE

-3.1 C

-3.5 C

-3.4 C

-1.2 C

0 W/m

0.00 mm

03:25

-1.0 C

1016.7 hpa

86 %

6.4 km/h aus 115

11.3 km/h aus SE

-3.0 C

-3.4 C

-3.3 C

-1.1 C

0 W/m

0.00 mm

03:30

-0.9 C

1016.2 hpa

86 %

6.4 km/h aus 114

16.1 km/h aus SE

-2.9 C

-3.3 C

-3.2 C

-1.0 C

0 W/m

0.00 mm

03:35

-0.8 C

1016.2 hpa

86 %

8.0 km/h aus 117

14.5 km/h aus SE

-2.9 C

-3.8 C

-3.7 C

-0.9 C

0 W/m

0.00 mm

03:40

-0.8 C

1016.2 hpa

85 %

8.0 km/h aus 116

11.3 km/h aus ESE

-3.0 C

-3.8 C

-3.7 C

-0.9 C

0 W/m

0.00 mm

03:45

-0.7 C

1016.2 hpa

85 %

8.0 km/h aus 117

14.5 km/h aus ESE

-2.9 C

-3.7 C

-3.6 C

-0.8 C

0 W/m

0.00 mm

03:50

-0.6 C

1016.2 hpa

85 %

3.2 km/h aus 117

8.0 km/h aus ESE

-2.8 C

-1.3 C

-1.2 C

-0.7 C

0 W/m

0.00 mm

03:55

-0.6 C

1016.2 hpa

85 %

1.6 km/h aus 116

6.4 km/h aus ESE

-2.8 C

-0.7 C

-0.6 C

-0.7 C

0 W/m

0.00 mm

04:00

-0.5 C

1016.1 hpa

85 %

1.6 km/h aus 114

6.4 km/h aus SE

-2.7 C

-0.6 C

-0.5 C

-0.6 C

0 W/m

0.00 mm

04:05

-0.4 C

1016.1 hpa

84 %

1.6 km/h aus 115

11.3 km/h aus SE

-2.8 C

-0.6 C

-0.4 C

-0.6 C

0 W/m

0.00 mm

04:10

-0.4 C

1016.1 hpa

84 %

6.4 km/h aus 114

11.3 km/h aus SE

-2.8 C

-2.8 C

-2.7 C

-0.6 C

0 W/m

0.00 mm

04:15

-0.4 C

1016.1 hpa

84 %

4.8 km/h aus 117

11.3 km/h aus SE

-2.8 C

-2.1 C

-2.0 C

-0.6 C

0 W/m

0.00 mm

04:20

-0.4 C

1016.1 hpa

84 %

3.2 km/h aus 116

14.5 km/h aus SE

-2.8 C

-1.2 C

-1.1 C

-0.6 C

0 W/m

0.00 mm

04:25

-0.4 C

1016.1 hpa

84 %

4.8 km/h aus 116

9.7 km/h aus SE

-2.8 C

-2.1 C

-2.0 C

-0.6 C

0 W/m

0.00 mm

04:30

-0.4 C

1016.2 hpa

83 %

6.4 km/h aus 117

11.3 km/h aus SE

-2.9 C

-2.7 C

-2.6 C

-0.5 C

0 W/m

0.00 mm

04:35

-0.3 C

1016.2 hpa

83 %

4.8 km/h aus 117

9.7 km/h aus SE

-2.9 C

-2.0 C

-1.9 C

-0.4 C

0 W/m

0.00 mm

04:40

-0.3 C

1016.2 hpa

83 %

4.8 km/h aus 117

11.3 km/h aus SE

-2.8 C

-1.9 C

-1.8 C

-0.4 C

0 W/m

0.00 mm

04:45

-0.3 C

1016.1 hpa

83 %

6.4 km/h aus 114

11.3 km/h aus SE

-2.8 C

-2.6 C

-2.5 C

-0.4 C

0 W/m

0.00 mm

04:50

-0.3 C

1016.1 hpa

82 %

6.4 km/h aus 113

16.1 km/h aus SE

-3.0 C

-2.7 C

-2.5 C

-0.4 C

0 W/m

0.00 mm

04:55

-0.3 C

1016.1 hpa

82 %

6.4 km/h aus 117

9.7 km/h aus ESE

-3.0 C

-2.7 C

-2.5 C

-0.4 C

0 W/m

0.00 mm

05:00

-0.3 C

1016.1 hpa

82 %

3.2 km/h aus 117

9.7 km/h aus ESE

-3.0 C

-1.1 C

-0.9 C

-0.4 C

0 W/m

0.00 mm

05:05

-0.3 C

1016.1 hpa

82 %

3.2 km/h aus 117

9.7 km/h aus SE

-3.0 C

-1.1 C

-0.9 C

-0.4 C

0 W/m

0.00 mm

05:10

-0.3 C

1016.1 hpa

81 %

3.2 km/h aus 118

11.3 km/h aus SE

-3.2 C

-1.1 C

-0.9 C

-0.5 C

0 W/m

0.00 mm

05:15

-0.3 C

1016.0 hpa

82 %

4.8 km/h aus 116

9.7 km/h aus SE

-3.0 C

-1.9 C

-1.8 C

-0.4 C

0 W/m

0.00 mm

05:20

-0.2 C

1016.0 hpa

82 %

9.7 km/h aus 116

14.5 km/h aus S

-2.9 C

-3.6 C

-3.4 C

-0.4 C

0 W/m

0.00 mm

05:25

-0.1 C

1016.0 hpa

82 %

9.7 km/h aus 115

20.9 km/h aus SSE

-2.8 C

-3.5 C

-3.3 C

-0.3 C

0 W/m

0.00 mm

05:30

0.1 C

1016.0 hpa

82 %

12.9 km/h aus 113

19.3 km/h aus SSE

-2.7 C

-4.1 C

-3.9 C

-0.1 C

0 W/m

0.00 mm

05:35

0.2 C

1016.0 hpa

82 %

4.8 km/h aus 115

17.7 km/h aus S

-2.5 C

-1.4 C

-1.3 C

0.0 C

0 W/m

0.00 mm

05:40

0.3 C

1016.0 hpa

82 %

9.7 km/h aus 117

22.5 km/h aus SSE

-2.4 C

-3.1 C

-2.9 C

0.1 C

0 W/m

0.00 mm

05:45

0.3 C

1015.9 hpa

81 %

9.7 km/h aus 115

22.5 km/h aus ESE

-2.5 C

-3.0 C

-2.8 C

0.2 C

0 W/m

0.00 mm

05:50

0.4 C

1015.9 hpa

81 %

12.9 km/h aus 117

22.5 km/h aus SE

-2.4 C

-3.6 C

-3.4 C

0.3 C

0 W/m

0.00 mm

05:55

0.5 C

1015.9 hpa

81 %

11.3 km/h aus 117

19.3 km/h aus SSE

-2.4 C

-3.2 C

-3.0 C

0.3 C

0 W/m

0.00 mm

06:00

0.6 C

1016.1 hpa

80 %

11.3 km/h aus 117

17.7 km/h aus SSE

-2.5 C

-3.1 C

-2.9 C

0.4 C

0 W/m

0.00 mm

06:05

0.6 C

1016.1 hpa

80 %

8.0 km/h aus 114

17.7 km/h aus SSE

-2.5 C

-2.2 C

-2.1 C

0.4 C

0 W/m

0.00 mm

06:10

0.6 C

1016.1 hpa

80 %

8.0 km/h aus 114

16.1 km/h aus SSE

-2.4 C

-2.2 C

-2.0 C

0.4 C

0 W/m

0.00 mm

06:15

0.6 C

1015.8 hpa

80 %

8.0 km/h aus 116

14.5 km/h aus SE

-2.4 C

-2.2 C

-2.0 C

0.4 C

0 W/m

0.00 mm

06:20

0.7 C

1015.8 hpa

80 %

9.7 km/h aus 117

17.7 km/h aus ESE

-2.4 C

-2.6 C

-2.4 C

0.5 C

0 W/m

0.00 mm

06:25

0.7 C

1015.8 hpa

80 %

3.2 km/h aus 117

11.3 km/h aus ESE

-2.4 C

0.0 C

0.2 C

0.5 C

3 W/m

0.00 mm

06:30

0.7 C

1015.8 hpa

80 %

3.2 km/h aus 115

19.3 km/h aus SSE

-2.3 C

0.1 C

0.2 C

0.6 C

8 W/m

0.00 mm

06:35

0.8 C

1015.8 hpa

80 %

8.0 km/h aus 117

22.5 km/h aus ESE

-2.2 C

-2.0 C

-1.8 C

0.6 C

12 W/m

0.00 mm

06:40

0.9 C

1015.8 hpa

79 %

4.8 km/h aus 115

19.3 km/h aus SE

-2.3 C

-0.7 C

-0.4 C

0.7 C

12 W/m

0.00 mm

06:45

0.9 C

1015.7 hpa

79 %

3.2 km/h aus 114

11.3 km/h aus ESE

-2.3 C

0.2 C

0.4 C

0.7 C

14 W/m

0.00 mm

06:50

1.0 C

1015.7 hpa

79 %

8.0 km/h aus 116

17.7 km/h aus ESE

-2.2 C

-1.8 C

-1.6 C

0.8 C

20 W/m

0.00 mm

06:55

1.1 C

1015.7 hpa

79 %

8.0 km/h aus 117

16.1 km/h aus ESE

-2.2 C

-1.7 C

-1.5 C

0.8 C

21 W/m

0.00 mm

07:00

1.1 C

1015.6 hpa

79 %

8.0 km/h aus 117

14.5 km/h aus ESE

-2.2 C

-1.7 C

-1.5 C

0.8 C

21 W/m

0.00 mm

07:05

1.1 C

1015.6 hpa

79 %

6.4 km/h aus 117

14.5 km/h aus SE

-2.1 C

-1.1 C

-0.9 C

0.9 C

25 W/m

0.00 mm

07:10

1.2 C

1015.6 hpa

79 %

6.4 km/h aus 116

9.7 km/h aus SE

-2.0 C

-1.0 C

-0.8 C

1.0 C

31 W/m

0.00 mm

07:15

1.2 C

1015.4 hpa

78 %

1.6 km/h aus 116

14.5 km/h aus ESE

-2.2 C

1.0 C

1.2 C

1.0 C

46 W/m

0.00 mm

07:20

1.3 C

1015.4 hpa

78 %

1.6 km/h aus 115

8.0 km/h aus SE

-2.1 C

1.1 C

1.3 C

1.1 C

62 W/m

0.00 mm

07:25

1.4 C

1015.4 hpa

78 %

1.6 km/h aus 114

6.4 km/h aus SE

-2.0 C

1.2 C

1.4 C

1.2 C

65 W/m

0.00 mm

07:30

1.6 C

1015.6 hpa

78 %

1.6 km/h aus 117

6.4 km/h aus SE

-1.9 C

1.3 C

1.6 C

1.3 C

60 W/m

0.00 mm

07:35

1.6 C

1015.6 hpa

78 %

3.2 km/h aus 116

16.1 km/h aus ESE

-1.8 C

1.1 C

1.2 C

1.4 C

63 W/m

0.00 mm

07:40

1.7 C

1015.6 hpa

78 %

8.0 km/h aus 117

17.7 km/h aus SSE

-1.7 C

-0.9 C

-0.7 C

1.6 C

75 W/m

0.00 mm

07:45

1.8 C

1015.7 hpa

78 %

6.4 km/h aus 117

16.1 km/h aus SE

-1.6 C

-0.2 C

-0.1 C

1.7 C

85 W/m

0.00 mm

07:50

1.9 C

1015.7 hpa

78 %

6.4 km/h aus 115

22.5 km/h aus SE

-1.5 C

-0.2 C

0.0 C

1.7 C

90 W/m

0.00 mm

07:55

2.0 C

1015.7 hpa

78 %

8.0 km/h aus 113

17.7 km/h aus SE

-1.4 C

-0.6 C

-0.4 C

1.8 C

89 W/m

0.00 mm

08:00

2.1 C

1015.7 hpa

77 %

4.8 km/h aus 115

11.3 km/h aus SSE

-1.5 C

0.7 C

0.9 C

1.9 C

98 W/m

0.00 mm

08:05

2.2 C

1015.7 hpa

77 %

4.8 km/h aus 115

17.7 km/h aus SE

-1.4 C

0.8 C

1.0 C

2.0 C

106 W/m

0.00 mm

08:10

2.3 C

1015.7 hpa

77 %

8.0 km/h aus 117

22.5 km/h aus SE

-1.3 C

-0.2 C

0.0 C

2.1 C

124 W/m

0.00 mm

08:15

2.4 C

1015.8 hpa

76 %

9.7 km/h aus 116

17.7 km/h aus SE

-1.4 C

-0.6 C

-0.3 C

2.2 C

129 W/m

0.00 mm

08:20

2.5 C

1015.8 hpa

76 %

3.2 km/h aus 116

8.0 km/h aus ESE

-1.3 C

1.9 C

2.2 C

2.3 C

152 W/m

0.00 mm

08:25

2.7 C

1015.8 hpa

76 %

4.8 km/h aus 115

19.3 km/h aus E

-1.1 C

1.3 C

1.5 C

2.4 C

167 W/m

0.00 mm

08:30

2.8 C

1015.8 hpa

76 %

8.0 km/h aus 114

22.5 km/h aus SSE

-1.0 C

0.3 C

0.5 C

2.6 C

178 W/m

0.00 mm

08:35

3.0 C

1015.8 hpa

75 %

9.7 km/h aus 117

29.0 km/h aus SSE

-1.0 C

0.2 C

0.4 C

2.8 C

180 W/m

0.00 mm

08:40

3.2 C

1015.8 hpa

74 %

8.0 km/h aus 117

22.5 km/h aus SE

-1.0 C

0.8 C

1.0 C

2.9 C

177 W/m

0.00 mm

08:45

3.3 C

1015.8 hpa

74 %

9.7 km/h aus 117

20.9 km/h aus SE

-0.9 C

0.5 C

0.7 C

3.1 C

175 W/m

0.00 mm

08:50

3.4 C

1015.8 hpa

73 %

12.9 km/h aus 117

30.6 km/h aus ESE

-1.0 C

-0.1 C

0.2 C

3.1 C

173 W/m

0.00 mm

08:55

3.4 C

1015.8 hpa

73 %

9.7 km/h aus 116

30.6 km/h aus SE

-1.0 C

0.6 C

0.8 C

3.1 C

197 W/m

0.00 mm

09:00

3.4 C

1016.0 hpa

72 %

12.9 km/h aus 114

22.5 km/h aus SE

-1.1 C

-0.1 C

0.2 C

3.2 C

214 W/m

0.00 mm

09:05

3.5 C

1016.0 hpa

72 %

12.9 km/h aus 115

25.7 km/h aus SE

-1.1 C

0.0 C

0.3 C

3.2 C

217 W/m

0.00 mm

09:10

3.6 C

1016.0 hpa

72 %

11.3 km/h aus 117

22.5 km/h aus SSE

-1.0 C

0.4 C

0.7 C

3.3 C

223 W/m

0.00 mm

09:15

3.8 C

1015.9 hpa

72 %

11.3 km/h aus 117

22.5 km/h aus ESE

-0.8 C

0.7 C

0.9 C

3.5 C

237 W/m

0.00 mm

09:20

3.8 C

1015.9 hpa

71 %

12.9 km/h aus 116

24.1 km/h aus SSE

-0.9 C

0.3 C

0.7 C

3.5 C

231 W/m

0.00 mm

09:25

4.0 C

1015.9 hpa

70 %

11.3 km/h aus 116

24.1 km/h aus SE

-1.0 C

0.9 C

1.2 C

3.7 C

254 W/m

0.00 mm

09:30

4.2 C

1015.8 hpa

70 %

14.5 km/h aus 114

25.7 km/h aus ESE

-0.8 C

0.5 C

0.8 C

3.8 C

249 W/m

0.00 mm

09:35

4.3 C

1015.8 hpa

69 %

12.9 km/h aus 116

29.0 km/h aus ESE

-0.9 C

0.9 C

1.2 C

3.9 C

250 W/m

0.00 mm

09:40

4.4 C

1015.8 hpa

69 %

12.9 km/h aus 115

27.4 km/h aus ESE

-0.8 C

1.1 C

1.4 C

4.1 C

264 W/m

0.00 mm

09:45

4.6 C

1015.7 hpa

68 %

12.9 km/h aus 116

25.7 km/h aus ESE

-0.8 C

1.2 C

1.6 C

4.2 C

284 W/m

0.00 mm

09:50

4.8 C

1015.7 hpa

68 %

11.3 km/h aus 117

25.7 km/h aus ESE

-0.6 C

1.8 C

2.1 C

4.4 C

316 W/m

0.00 mm

09:55

5.2 C

1015.7 hpa

67 %

16.1 km/h aus 116

30.6 km/h aus SE

-0.5 C

1.4 C

1.8 C

4.8 C

417 W/m

0.00 mm

10:00

5.2 C

1015.7 hpa

66 %

12.9 km/h aus 114

24.1 km/h aus ESE

-0.6 C

2.0 C

2.4 C

4.8 C

277 W/m

0.00 mm

10:05

5.2 C

1015.7 hpa

66 %

14.5 km/h aus 114

30.6 km/h aus SSE

-0.6 C

1.7 C

2.1 C

4.8 C

363 W/m

0.00 mm

10:10

5.6 C

1015.7 hpa

67 %

11.3 km/h aus 116

24.1 km/h aus ESE

0.0 C

2.7 C

3.1 C

5.2 C

376 W/m

0.00 mm

10:15

5.8 C

1015.6 hpa

66 %

16.1 km/h aus 117

30.6 km/h aus SE

-0.1 C

2.1 C

2.4 C

5.4 C

376 W/m

0.00 mm

10:20

5.8 C

1015.6 hpa

65 %

16.1 km/h aus 117

32.2 km/h aus SE

-0.3 C

2.1 C

2.4 C

5.4 C

359 W/m

0.00 mm

10:25

6.1 C

1015.6 hpa

65 %

12.9 km/h aus 114

25.7 km/h aus SE

0.0 C

3.1 C

3.4 C

5.7 C

455 W/m

0.00 mm

10:30

6.3 C

1015.6 hpa

63 %

16.1 km/h aus 115

25.7 km/h aus SE

-0.3 C

2.7 C

3.1 C

5.9 C

387 W/m

0.00 mm

10:35

6.0 C

1015.6 hpa

63 %

17.7 km/h aus 118

30.6 km/h aus SE

-0.5 C

2.1 C

2.5 C

5.6 C

274 W/m

0.00 mm

10:40

6.0 C

1015.6 hpa

64 %

12.9 km/h aus 117

22.5 km/h aus SSE

-0.3 C

2.9 C

3.3 C

5.6 C

279 W/m

0.00 mm

10:45

6.1 C

1015.6 hpa

64 %

16.1 km/h aus 117

27.4 km/h aus SSE

-0.2 C

2.4 C

2.8 C

5.7 C

288 W/m

0.00 mm

10:50

6.2 C

1015.6 hpa

64 %

14.5 km/h aus 116

25.7 km/h aus SSE

-0.1 C

2.8 C

3.2 C

5.8 C

267 W/m

0.00 mm

10:55

6.2 C

1015.6 hpa

63 %

14.5 km/h aus 113

25.7 km/h aus ESE

-0.3 C

2.8 C

3.2 C

5.8 C

295 W/m

0.00 mm

11:00

6.4 C

1015.6 hpa

63 %

14.5 km/h aus 116

25.7 km/h aus SSE

-0.1 C

3.1 C

3.5 C

6.1 C

329 W/m

0.00 mm

11:05

6.8 C

1015.6 hpa

61 %

16.1 km/h aus 116

29.0 km/h aus SE

-0.2 C

3.3 C

3.7 C

6.4 C

459 W/m

0.00 mm

11:10

7.1 C

1015.6 hpa

60 %

14.5 km/h aus 117

25.7 km/h aus SSE

-0.2 C

3.8 C

4.2 C

6.6 C

447 W/m

0.00 mm

11:15

7.2 C

1015.3 hpa

60 %

17.7 km/h aus 116

29.0 km/h aus SE

-0.1 C

3.4 C

3.8 C

6.7 C

477 W/m

0.00 mm

11:20

7.5 C

1015.3 hpa

61 %

12.9 km/h aus 116

22.5 km/h aus SSE

0.5 C

4.7 C

5.1 C

7.1 C

518 W/m

0.00 mm

11:25

7.7 C

1015.3 hpa

60 %

11.3 km/h aus 114

25.7 km/h aus SE

0.4 C

5.3 C

5.7 C

7.3 C

494 W/m

0.00 mm

11:30

7.6 C

1015.2 hpa

60 %

16.1 km/h aus 117

29.0 km/h aus SSE

0.3 C

4.2 C

4.6 C

7.2 C

427 W/m

0.00 mm

11:35

7.5 C

1015.2 hpa

60 %

14.5 km/h aus 117

24.1 km/h aus SSE

0.2 C

4.3 C

4.8 C

7.1 C

382 W/m

0.00 mm

11:40

7.5 C

1015.2 hpa

59 %

14.5 km/h aus 117

27.4 km/h aus SSE

0.0 C

4.3 C

4.8 C

7.1 C

381 W/m

0.00 mm

11:45

7.5 C

1015.2 hpa

59 %

14.5 km/h aus 116

24.1 km/h aus SSE

0.0 C

4.3 C

4.8 C

7.1 C

408 W/m

0.00 mm

11:50

7.9 C

1015.2 hpa

60 %

12.9 km/h aus 113

27.4 km/h aus ESE

0.6 C

5.1 C

5.6 C

7.4 C

475 W/m

0.00 mm

11:55

8.1 C

1015.2 hpa

58 %

11.3 km/h aus 116

24.1 km/h aus SE

0.3 C

5.6 C

6.1 C

7.6 C

457 W/m

0.00 mm

12:00

8.2 C

1015.1 hpa

58 %

14.5 km/h aus 116

27.4 km/h aus SSE

0.4 C

5.1 C

5.6 C

7.7 C

444 W/m

0.00 mm

12:05

8.0 C

1015.1 hpa

58 %

16.1 km/h aus 115

27.4 km/h aus SSE

0.2 C

4.6 C

5.1 C

7.5 C

394 W/m

0.00 mm

12:10

7.9 C

1015.1 hpa

58 %

20.9 km/h aus 117

33.8 km/h aus SSE

0.1 C

3.7 C

4.2 C

7.4 C

349 W/m

0.00 mm

12:15

7.8 C

1014.7 hpa

58 %

20.9 km/h aus 113

35.4 km/h aus S

0.1 C

3.6 C

4.1 C

7.3 C

333 W/m

0.00 mm

12:20

8.0 C

1014.7 hpa

60 %

14.5 km/h aus 115

25.7 km/h aus SSE

0.7 C

4.9 C

5.3 C

7.6 C

349 W/m

0.00 mm

12:25

8.0 C

1014.7 hpa

57 %

19.3 km/h aus 116

35.4 km/h aus ESE

0.0 C

4.1 C

4.6 C

7.5 C

367 W/m

0.00 mm

12:30

8.0 C

1014.7 hpa

57 %

24.1 km/h aus 117

37.0 km/h aus SSE

0.0 C

3.4 C

3.9 C

7.5 C

382 W/m

0.00 mm

12:35

8.1 C

1014.7 hpa

59 %

14.5 km/h aus 117

29.0 km/h aus SSE

0.6 C

5.1 C

5.5 C

7.7 C

404 W/m

0.00 mm

12:40

8.2 C

1014.7 hpa

58 %

14.5 km/h aus 114

32.2 km/h aus SSE

0.4 C

5.1 C

5.6 C

7.7 C

406 W/m

0.00 mm

12:45

8.2 C

1014.5 hpa

58 %

16.1 km/h aus 115

29.0 km/h aus S

0.4 C

4.7 C

5.2 C

7.7 C

418 W/m

0.00 mm

12:50

8.3 C

1014.5 hpa

57 %

14.5 km/h aus 117

25.7 km/h aus SE

0.2 C

5.2 C

5.7 C

7.8 C

440 W/m

0.00 mm

12:55

8.4 C

1014.5 hpa

56 %

16.1 km/h aus 117

29.0 km/h aus SSE

0.1 C

4.9 C

5.5 C

7.8 C

362 W/m

0.00 mm

13:00

8.2 C

1014.1 hpa

57 %

12.9 km/h aus 117

25.7 km/h aus SE

0.1 C

5.4 C

5.9 C

7.7 C

271 W/m

0.00 mm

13:05

8.2 C

1014.1 hpa

57 %

12.9 km/h aus 116

22.5 km/h aus SE

0.2 C

5.4 C

5.9 C

7.7 C

298 W/m

0.00 mm

13:10

8.3 C

1014.1 hpa

56 %

12.9 km/h aus 114

24.1 km/h aus SE

0.0 C

5.4 C

6.0 C

7.7 C

354 W/m

0.00 mm

13:15

8.9 C

1014.1 hpa

57 %

12.9 km/h aus 117

30.6 km/h aus SSE

0.9 C

6.3 C

6.8 C

8.4 C

547 W/m

0.00 mm

13:20

9.2 C

1014.1 hpa

55 %

14.5 km/h aus 117

32.2 km/h aus SSE

0.6 C

6.2 C

6.7 C

8.6 C

483 W/m

0.00 mm

13:25

8.8 C

1014.1 hpa

53 %

17.7 km/h aus 116

30.6 km/h aus SSE

-0.2 C

5.2 C

5.8 C

8.2 C

363 W/m

0.00 mm

13:30

8.8 C

1014.0 hpa

55 %

12.9 km/h aus 115

24.1 km/h aus SE

0.3 C

6.1 C

6.7 C

8.3 C

361 W/m

0.00 mm

13:35

8.8 C

1014.0 hpa

55 %

12.9 km/h aus 114

24.1 km/h aus SE

0.3 C

6.1 C

6.7 C

8.3 C

323 W/m

0.00 mm

13:40

8.8 C

1014.0 hpa

55 %

11.3 km/h aus 117

19.3 km/h aus SSE

0.3 C

6.5 C

7.1 C

8.3 C

277 W/m

0.00 mm

13:45

8.7 C

1013.8 hpa

56 %

16.1 km/h aus 117

25.7 km/h aus SSE

0.4 C

5.3 C

5.8 C

8.1 C

258 W/m

0.00 mm

13:50

8.7 C

1013.8 hpa

56 %

11.3 km/h aus 117

24.1 km/h aus SSE

0.4 C

6.3 C

6.8 C

8.1 C

288 W/m

0.00 mm

13:55

8.7 C

1013.8 hpa

57 %

12.9 km/h aus 116

25.7 km/h aus SE

0.7 C

6.0 C

6.5 C

8.2 C

299 W/m

0.00 mm

14:00

8.8 C

1013.5 hpa

56 %

14.5 km/h aus 114

25.7 km/h aus SSE

0.5 C

5.7 C

6.3 C

8.2 C

268 W/m

0.00 mm

14:05

8.7 C

1013.5 hpa

58 %

14.5 km/h aus 116

24.1 km/h aus SSE

0.9 C

5.7 C

6.2 C

8.2 C

224 W/m

0.00 mm

14:10

8.7 C

1013.5 hpa

57 %

12.9 km/h aus 117

24.1 km/h aus SE

0.6 C

5.9 C

6.4 C

8.2 C

217 W/m

0.00 mm

14:15

8.6 C

1013.4 hpa

56 %

12.9 km/h aus 117

25.7 km/h aus ESE

0.3 C

5.8 C

6.4 C

8.1 C

213 W/m

0.00 mm

14:20

8.6 C

1013.4 hpa

57 %

11.3 km/h aus 117

25.7 km/h aus SSE

0.5 C

6.2 C

6.7 C

8.1 C

196 W/m

0.00 mm

14:25

8.5 C

1013.4 hpa

56 %

14.5 km/h aus 115

25.7 km/h aus SSE

0.2 C

5.4 C

5.9 C

7.9 C

179 W/m

0.00 mm

14:30

8.4 C

1013.5 hpa

56 %

11.3 km/h aus 115

25.7 km/h aus ESE

0.2 C

6.0 C

6.6 C

7.9 C

167 W/m

0.00 mm

14:35

8.4 C

1013.5 hpa

57 %

12.9 km/h aus 117

25.7 km/h aus SSE

0.4 C

5.7 C

6.2 C

7.9 C

185 W/m

0.00 mm

14:40

8.5 C

1013.5 hpa

56 %

12.9 km/h aus 117

27.4 km/h aus SE

0.2 C

5.7 C

6.3 C

7.9 C

223 W/m

0.00 mm

14:45

8.6 C

1013.1 hpa

55 %

16.1 km/h aus 117

29.0 km/h aus SSE

0.1 C

5.2 C

5.8 C

8.1 C

235 W/m

0.00 mm

14:50

8.7 C

1013.1 hpa

55 %

16.1 km/h aus 116

30.6 km/h aus SSE

0.1 C

5.3 C

5.8 C

8.1 C

210 W/m

0.00 mm

14:55

8.7 C

1013.1 hpa

55 %

14.5 km/h aus 115

27.4 km/h aus ESE

0.1 C

5.6 C

6.1 C

8.1 C

205 W/m

0.00 mm

15:00

8.7 C

1012.9 hpa

54 %

12.9 km/h aus 116

25.7 km/h aus SE

-0.1 C

5.9 C

6.4 C

8.1 C

200 W/m

0.00 mm

15:05

8.7 C

1012.9 hpa

54 %

12.9 km/h aus 117

27.4 km/h aus SSE

-0.1 C

5.9 C

6.4 C

8.1 C

192 W/m

0.00 mm

15:10

8.6 C

1012.9 hpa

54 %

19.3 km/h aus 116

32.2 km/h aus SE

-0.2 C

4.7 C

5.3 C

8.1 C

193 W/m

0.00 mm

15:15

8.6 C

1012.6 hpa

54 %

14.5 km/h aus 116

32.2 km/h aus SSE

-0.2 C

5.5 C

6.1 C

8.1 C

208 W/m

0.00 mm

15:20

8.7 C

1012.6 hpa

53 %

17.7 km/h aus 114

33.8 km/h aus SSE

-0.4 C

4.9 C

5.6 C

8.1 C

214 W/m

0.00 mm

15:25

8.7 C

1012.6 hpa

54 %

16.1 km/h aus 115

38.6 km/h aus ESE

-0.1 C

5.3 C

5.8 C

8.1 C

154 W/m

0.00 mm

15:30

8.6 C

1012.4 hpa

54 %

16.1 km/h aus 117

30.6 km/h aus ESE

-0.2 C

5.2 C

5.8 C

8.1 C

131 W/m

0.00 mm

15:35

8.6 C

1012.4 hpa

54 %

16.1 km/h aus 116

30.6 km/h aus ESE

-0.2 C

5.2 C

5.7 C

8.0 C

158 W/m

0.00 mm

15:40

8.7 C

1012.4 hpa

53 %

14.5 km/h aus 117

25.7 km/h aus ESE

-0.4 C

5.5 C

6.1 C

8.1 C

207 W/m

0.00 mm

15:45

8.8 C

1012.2 hpa

54 %

9.7 km/h aus 115

20.9 km/h aus ESE

0.0 C

6.7 C

7.3 C

8.2 C

200 W/m

0.00 mm

15:50

8.8 C

1012.2 hpa

53 %

12.9 km/h aus 114

24.1 km/h aus ESE

-0.3 C

6.0 C

6.6 C

8.2 C

189 W/m

0.00 mm

15:55

8.7 C

1012.2 hpa

53 %

11.3 km/h aus 117

20.9 km/h aus SE

-0.3 C

6.3 C

6.9 C

8.1 C

179 W/m

0.00 mm

16:00

8.7 C

1012.0 hpa

54 %

8.0 km/h aus 118

20.9 km/h aus SE

-0.1 C

6.9 C

7.5 C

8.2 C

153 W/m

0.00 mm

16:05

8.7 C

1012.0 hpa

53 %

12.9 km/h aus 116

27.4 km/h aus SE

-0.4 C

5.8 C

6.4 C

8.1 C

123 W/m

0.00 mm

16:10

8.7 C

1012.0 hpa

52 %

14.5 km/h aus 116

30.6 km/h aus ESE

-0.7 C

5.5 C

6.1 C

8.1 C

127 W/m

0.00 mm

16:15

8.6 C

1011.8 hpa

53 %

14.5 km/h aus 113

25.7 km/h aus SSE

-0.4 C

5.4 C

6.1 C

8.0 C

122 W/m

0.00 mm

16:20

8.6 C

1011.8 hpa

52 %

16.1 km/h aus 117

33.8 km/h aus ESE

-0.8 C

5.1 C

5.7 C

7.9 C

118 W/m

0.00 mm

16:25

8.6 C

1011.8 hpa

51 %

16.1 km/h aus 117

30.6 km/h aus SE

-1.0 C

5.1 C

5.7 C

7.9 C

125 W/m

0.00 mm

16:30

8.6 C

1011.3 hpa

51 %

19.3 km/h aus 117

32.2 km/h aus ESE

-1.0 C

4.5 C

5.2 C

7.9 C

124 W/m

0.00 mm

16:35

8.6 C

1011.3 hpa

50 %

12.9 km/h aus 116

27.4 km/h aus ESE

-1.3 C

5.7 C

6.3 C

7.9 C

110 W/m

0.00 mm

16:40

8.6 C

1011.3 hpa

51 %

19.3 km/h aus 114

38.6 km/h aus SE

-1.0 C

4.5 C

5.2 C

7.9 C

106 W/m

0.00 mm

16:45

8.6 C

1011.2 hpa

51 %

12.9 km/h aus 116

29.0 km/h aus ESE

-1.0 C

5.7 C

6.3 C

7.9 C

106 W/m

0.00 mm

16:50

8.6 C

1011.2 hpa

52 %

12.9 km/h aus 117

25.7 km/h aus SSE

-0.7 C

5.8 C

6.4 C

8.0 C

102 W/m

0.00 mm

16:55

8.6 C

1011.2 hpa

52 %

14.5 km/h aus 115

27.4 km/h aus SSE

-0.7 C

5.4 C

6.1 C

8.0 C

95 W/m

0.00 mm

17:00

8.6 C

1011.0 hpa

52 %

12.9 km/h aus 117

25.7 km/h aus SSE

-0.7 C

5.8 C

6.4 C

8.0 C

99 W/m

0.00 mm

17:05

8.6 C

1011.0 hpa

52 %

11.3 km/h aus 116

25.7 km/h aus SSE

-0.8 C

6.1 C

6.7 C

7.9 C

97 W/m

0.00 mm

17:10

8.6 C

1011.0 hpa

52 %

12.9 km/h aus 114

22.5 km/h aus SE

-0.8 C

5.7 C

6.3 C

7.9 C

91 W/m

0.00 mm

17:15

8.6 C

1010.9 hpa

52 %

11.3 km/h aus 117

22.5 km/h aus ESE

-0.8 C

6.1 C

6.7 C

7.9 C

98 W/m

0.00 mm

17:20

8.5 C

1010.9 hpa

53 %

9.7 km/h aus 117

19.3 km/h aus SE

-0.5 C

6.3 C

6.9 C

7.9 C

88 W/m

0.00 mm

17:25

8.4 C

1010.9 hpa

52 %

14.5 km/h aus 116

30.6 km/h aus SSE

-0.9 C

5.2 C

5.8 C

7.8 C

81 W/m

0.00 mm

17:30

8.4 C

1010.8 hpa

52 %

12.9 km/h aus 116

25.7 km/h aus SE

-0.9 C

5.5 C

6.1 C

7.8 C

70 W/m

0.00 mm

17:35

8.4 C

1010.8 hpa

53 %

9.7 km/h aus 114

17.7 km/h aus SE

-0.6 C

6.2 C

6.8 C

7.8 C

60 W/m

0.00 mm

17:40

8.3 C

1010.8 hpa

51 %

6.4 km/h aus 115

19.3 km/h aus ESE

-1.2 C

6.8 C

7.4 C

7.7 C

53 W/m

0.00 mm

17:45

8.2 C

1010.7 hpa

51 %

11.3 km/h aus 116

22.5 km/h aus ESE

-1.3 C

5.7 C

6.3 C

7.6 C

46 W/m

0.00 mm

17:50

8.2 C

1010.7 hpa

50 %

12.9 km/h aus 117

20.9 km/h aus SSE

-1.7 C

5.2 C

5.9 C

7.5 C

38 W/m

0.00 mm

17:55

8.1 C

1010.7 hpa

50 %

14.5 km/h aus 116

30.6 km/h aus SE

-1.7 C

4.8 C

5.5 C

7.4 C

28 W/m

0.00 mm

18:00

8.1 C

1010.6 hpa

49 %

12.9 km/h aus 114

25.7 km/h aus ESE

-2.0 C

5.1 C

5.7 C

7.4 C

22 W/m

0.00 mm

18:05

8.0 C

1010.6 hpa

50 %

12.9 km/h aus 115

33.8 km/h aus SE

-1.8 C

5.1 C

5.7 C

7.4 C

17 W/m

0.00 mm

18:10

7.9 C

1010.6 hpa

50 %

14.5 km/h aus 117

27.4 km/h aus SE

-1.9 C

4.6 C

5.2 C

7.3 C

13 W/m

0.00 mm

18:15

7.9 C

1010.5 hpa

50 %

14.5 km/h aus 117

29.0 km/h aus ESE

-1.9 C

4.6 C

5.2 C

7.3 C

10 W/m

0.00 mm

18:20

7.9 C

1010.5 hpa

50 %

12.9 km/h aus 116

29.0 km/h aus ESE

-1.9 C

4.9 C

5.6 C

7.3 C

6 W/m

0.00 mm

18:25

7.8 C

1010.5 hpa

50 %

11.3 km/h aus 116

25.7 km/h aus SE

-2.0 C

5.2 C

5.8 C

7.2 C

2 W/m

0.00 mm

18:30

7.8 C

1010.4 hpa

51 %

12.9 km/h aus 113

24.1 km/h aus SSE

-1.7 C

4.8 C

5.4 C

7.2 C

0 W/m

0.00 mm

18:35

7.7 C

1010.4 hpa

51 %

14.5 km/h aus 116

25.7 km/h aus SE

-1.8 C

4.4 C

5.1 C

7.1 C

0 W/m

0.00 mm

18:40

7.7 C

1010.4 hpa

52 %

14.5 km/h aus 116

24.1 km/h aus SE

-1.6 C

4.4 C

5.0 C

7.1 C

0 W/m

0.00 mm

18:45

7.7 C

1010.4 hpa

52 %

14.5 km/h aus 117

27.4 km/h aus SSE

-1.6 C

4.4 C

5.0 C

7.1 C

0 W/m

0.00 mm

18:50

7.6 C

1010.4 hpa

53 %

12.9 km/h aus 117

27.4 km/h aus SSE

-1.4 C

4.7 C

5.2 C

7.1 C

0 W/m

0.00 mm

18:55

7.6 C

1010.4 hpa

52 %

14.5 km/h aus 114

24.1 km/h aus SSE

-1.7 C

4.2 C

4.8 C

6.9 C

0 W/m

0.00 mm

19:00

7.6 C

1010.4 hpa

53 %

12.9 km/h aus 115

25.7 km/h aus S

-1.4 C

4.6 C

5.2 C

7.0 C

0 W/m

0.00 mm

19:05

7.5 C

1010.4 hpa

53 %

11.3 km/h aus 117

19.3 km/h aus ESE

-1.5 C

4.9 C

5.4 C

6.9 C

0 W/m

0.00 mm

19:10

7.4 C

1010.4 hpa

54 %

12.9 km/h aus 118

24.1 km/h aus SE

-1.3 C

4.4 C

5.0 C

6.8 C

0 W/m

0.00 mm

19:15

7.3 C

1010.2 hpa

54 %

16.1 km/h aus 114

29.0 km/h aus SE

-1.4 C

3.7 C

4.3 C

6.8 C

0 W/m

0.00 mm

19:20

7.3 C

1010.2 hpa

55 %

14.5 km/h aus 116

25.7 km/h aus SE

-1.2 C

3.9 C

4.5 C

6.7 C

0 W/m

0.00 mm

19:25

7.3 C

1010.2 hpa

56 %

16.1 km/h aus 114

29.0 km/h aus ESE

-0.9 C

3.7 C

4.2 C

6.7 C

0 W/m

0.00 mm

19:30

7.3 C

1010.3 hpa

56 %

19.3 km/h aus 115

30.6 km/h aus ESE

-0.9 C

3.2 C

3.7 C

6.7 C

0 W/m

0.00 mm

19:35

7.2 C

1010.3 hpa

57 %

17.7 km/h aus 117

30.6 km/h aus SE

-0.7 C

3.4 C

3.9 C

6.7 C

0 W/m

0.00 mm

19:40

7.2 C

1010.3 hpa

58 %

19.3 km/h aus 117

30.6 km/h aus SE

-0.6 C

3.1 C

3.6 C

6.7 C

0 W/m

0.00 mm

19:45

7.2 C

1010.2 hpa

58 %

16.1 km/h aus 116

29.0 km/h aus SSE

-0.6 C

3.6 C

4.1 C

6.7 C

0 W/m

0.00 mm

19:50

7.1 C

1010.2 hpa

59 %

19.3 km/h aus 115

29.0 km/h aus SSE

-0.4 C

3.1 C

3.6 C

6.7 C

0 W/m

0.00 mm

19:55

7.1 C

1010.2 hpa

60 %

17.7 km/h aus 114

29.0 km/h aus SSE

-0.1 C

3.3 C

3.8 C

6.7 C

0 W/m

0.00 mm

20:00

7.1 C

1010.3 hpa

60 %

19.3 km/h aus 117

30.6 km/h aus SSE

-0.2 C

3.0 C

3.4 C

6.6 C

0 W/m

0.00 mm

20:05

7.0 C

1010.3 hpa

61 %

17.7 km/h aus 115

27.4 km/h aus SSE

0.0 C

3.2 C

3.6 C

6.6 C

0 W/m

0.00 mm

20:10

7.1 C

1010.3 hpa

61 %

24.1 km/h aus 116

30.6 km/h aus SE

0.0 C

2.4 C

2.9 C

6.6 C

0 W/m

0.00 mm

20:15

7.0 C

1010.4 hpa

62 %

22.5 km/h aus 116

33.8 km/h aus SE

0.2 C

2.6 C

3.0 C

6.6 C

0 W/m

0.00 mm

20:20

7.0 C

1010.4 hpa

63 %

22.5 km/h aus 115

33.8 km/h aus SSE

0.4 C

2.6 C

3.0 C

6.6 C

0 W/m

0.00 mm

20:25

7.0 C

1010.4 hpa

63 %

20.9 km/h aus 114

30.6 km/h aus SSE

0.4 C

2.8 C

3.2 C

6.6 C

0 W/m

0.00 mm

20:30

7.0 C

1010.1 hpa

63 %

22.5 km/h aus 116

32.2 km/h aus ESE

0.4 C

2.6 C

3.0 C

6.6 C

0 W/m

0.00 mm

20:35

7.1 C

1010.1 hpa

63 %

20.9 km/h aus 117

30.6 km/h aus SSE

0.5 C

2.8 C

3.2 C

6.7 C

0 W/m

0.00 mm

20:40

7.1 C

1010.1 hpa

64 %

22.5 km/h aus 117

32.2 km/h aus SSE

0.8 C

2.7 C

3.1 C

6.7 C

0 W/m

0.00 mm

20:45

7.2 C

1009.9 hpa

64 %

22.5 km/h aus 117

32.2 km/h aus S

0.8 C

2.8 C

3.2 C

6.8 C

0 W/m

0.00 mm

20:50

7.2 C

1009.9 hpa

64 %

22.5 km/h aus 114

37.0 km/h aus SSE

0.8 C

2.8 C

3.2 C

6.8 C

0 W/m

0.00 mm

20:55

7.2 C

1009.9 hpa

64 %

20.9 km/h aus 116

33.8 km/h aus SE

0.9 C

3.1 C

3.4 C

6.8 C

0 W/m

0.00 mm

21:00

7.2 C

1009.6 hpa

64 %

19.3 km/h aus 117

29.0 km/h aus SE

0.9 C

3.3 C

3.7 C

6.8 C

0 W/m

0.00 mm

21:05

7.2 C

1009.6 hpa

64 %

20.9 km/h aus 116

30.6 km/h aus SSE

0.9 C

3.1 C

3.4 C

6.8 C

0 W/m

0.00 mm

21:10

7.2 C

1009.6 hpa

64 %

22.5 km/h aus 116

38.6 km/h aus SE

0.8 C

2.8 C

3.2 C

6.8 C

0 W/m

0.00 mm

21:15

7.2 C

1009.5 hpa

64 %

24.1 km/h aus 115

35.4 km/h aus SSE

0.8 C

2.6 C

3.0 C

6.8 C

0 W/m

0.00 mm

21:20

7.2 C

1009.5 hpa

65 %

20.9 km/h aus 113

32.2 km/h aus SSE

1.0 C

3.0 C

3.4 C

6.8 C

0 W/m

0.00 mm

21:25

7.2 C

1009.5 hpa

65 %

24.1 km/h aus 116

35.4 km/h aus SSE

1.0 C

2.6 C

3.0 C

6.8 C

0 W/m

0.00 mm

21:30

7.2 C

1009.4 hpa

65 %

24.1 km/h aus 116

38.6 km/h aus SSE

1.0 C

2.6 C

3.0 C

6.8 C

0 W/m

0.00 mm

21:35

7.1 C

1009.4 hpa

65 %

22.5 km/h aus 117

33.8 km/h aus SSE

1.0 C

2.7 C

3.1 C

6.7 C

0 W/m

0.00 mm

21:40

7.1 C

1009.4 hpa

65 %

22.5 km/h aus 117

33.8 km/h aus SSE

0.9 C

2.7 C

3.1 C

6.7 C

0 W/m

0.00 mm

21:45

7.0 C

1009.4 hpa

66 %

22.5 km/h aus 115

32.2 km/h aus SSE

1.1 C

2.6 C

3.0 C

6.6 C

0 W/m

0.00 mm

21:50

6.9 C

1009.4 hpa

66 %

19.3 km/h aus 114

29.0 km/h aus SSE

1.0 C

2.9 C

3.3 C

6.6 C

0 W/m

0.00 mm

21:55

6.9 C

1009.4 hpa

66 %

19.3 km/h aus 117

30.6 km/h aus SSE

1.0 C

2.9 C

3.3 C

6.5 C

0 W/m

0.00 mm

22:00

6.8 C

1009.4 hpa

66 %

17.7 km/h aus 117

27.4 km/h aus SSE

0.9 C

3.1 C

3.4 C

6.4 C

0 W/m

0.00 mm

22:05

6.8 C

1009.4 hpa

67 %

14.5 km/h aus 117

25.7 km/h aus ESE

1.1 C

3.6 C

3.9 C

6.4 C

0 W/m

0.00 mm

22:10

6.8 C

1009.4 hpa

67 %

12.9 km/h aus 116

24.1 km/h aus SE

1.1 C

3.9 C

4.2 C

6.4 C

0 W/m

0.00 mm

22:15

6.7 C

1009.0 hpa

67 %

11.3 km/h aus 114

20.9 km/h aus SSE

1.0 C

4.2 C

4.5 C

6.4 C

0 W/m

0.00 mm

22:20

6.7 C

1009.0 hpa

67 %

11.3 km/h aus 116

20.9 km/h aus SE

1.0 C

4.2 C

4.5 C

6.4 C

0 W/m

0.00 mm

22:25

6.7 C

1009.0 hpa

67 %

12.9 km/h aus 117

24.1 km/h aus SSE

1.0 C

3.8 C

4.2 C

6.4 C

0 W/m

0.00 mm

22:30

6.7 C

1008.6 hpa

67 %

16.1 km/h aus 117

32.2 km/h aus SE

1.0 C

3.2 C

3.6 C

6.4 C

0 W/m

0.00 mm

22:35

6.8 C

1008.6 hpa

67 %

17.7 km/h aus 116

32.2 km/h aus SE

1.1 C

3.1 C

3.4 C

6.5 C

0 W/m

0.00 mm

22:40

6.8 C

1008.6 hpa

67 %

17.7 km/h aus 115

32.2 km/h aus SSE

1.1 C

3.1 C

3.4 C

6.5 C

0 W/m

0.00 mm

22:45

6.9 C

1008.4 hpa

67 %

17.7 km/h aus 113

27.4 km/h aus SE

1.2 C

3.2 C

3.5 C

6.6 C

0 W/m

0.00 mm

22:50

6.9 C

1008.4 hpa

67 %

14.5 km/h aus 116

27.4 km/h aus SSE

1.2 C

3.7 C

4.1 C

6.6 C

0 W/m

0.00 mm

22:55

6.9 C

1008.4 hpa

67 %

14.5 km/h aus 116

30.6 km/h aus SSE

1.2 C

3.7 C

4.1 C

6.6 C

0 W/m

0.00 mm

23:00

6.8 C

1008.3 hpa

67 %

11.3 km/h aus 117

25.7 km/h aus SSE

1.1 C

4.3 C

4.7 C

6.5 C

0 W/m

0.00 mm

23:05

6.8 C

1008.3 hpa

67 %

14.5 km/h aus 115

25.7 km/h aus SE

1.1 C

3.7 C

4.0 C

6.5 C

0 W/m

0.00 mm

23:10

6.8 C

1008.3 hpa

67 %

14.5 km/h aus 115

27.4 km/h aus SE

1.1 C

3.6 C

3.9 C

6.4 C

0 W/m

0.00 mm

23:15

6.8 C

1008.3 hpa

67 %

16.1 km/h aus 115

29.0 km/h aus S

1.1 C

3.3 C

3.6 C

6.4 C

0 W/m

0.00 mm

23:20

6.8 C

1008.3 hpa

67 %

14.5 km/h aus 116

25.7 km/h aus SE

1.1 C

3.6 C

3.9 C

6.4 C

0 W/m

0.00 mm

23:25

6.8 C

1008.3 hpa

67 %

14.5 km/h aus 115

35.4 km/h aus SE

1.1 C

3.6 C

3.9 C

6.4 C

0 W/m

0.00 mm

23:30

6.8 C

1007.8 hpa

67 %

14.5 km/h aus 117

27.4 km/h aus SE

1.1 C

3.7 C

4.0 C

6.5 C

0 W/m

0.00 mm

23:35

6.8 C

1007.8 hpa

67 %

16.1 km/h aus 117

25.7 km/h aus ESE

1.1 C

3.3 C

3.6 C

6.4 C

0 W/m

0.00 mm

23:40

6.8 C

1007.8 hpa

67 %

14.5 km/h aus 114

37.0 km/h aus SE

1.1 C

3.7 C

4.0 C

6.5 C

0 W/m

0.00 mm

23:45

6.8 C

1007.8 hpa

67 %

16.1 km/h aus 116

32.2 km/h aus ESE

1.1 C

3.4 C

3.7 C

6.5 C

0 W/m

0.00 mm

23:50

6.9 C

1007.8 hpa

67 %

17.7 km/h aus 116

29.0 km/h aus SSE

1.2 C

3.2 C

3.5 C

6.6 C

0 W/m

0.00 mm

23:55

6.9 C

1007.8 hpa

66 %

16.1 km/h aus 115

30.6 km/h aus SE

1.0 C

3.4 C

3.8 C

6.5 C

0 W/m

0.00 mm